Powrót do katalogu

STARLINK-36978

AktywnyŁącznośćVLEO
NORAD 68960·PAYLOAD·🇺🇸 United States

Wystrzelony May 1, 2026 z Cape Canaveral Space Force Station

Loading…

Następne Przeloty (najbliższe 24 godziny)

TLE

ŚwieżeSource: CelesTrak SupGP

Epoka: Sep 15, 2026, 03:08 UTC

1 68960C 26099K   26258.13104167 -.00002890  00000+0 -85345-4 0  2588
2 68960  53.1575 100.9654 0001228  78.0777 125.9578 15.34404875    10

Śledź STARLINK-36978 w czasie rzeczywistym z AllMySat

Download on the App Store